Time,TemperatureF,DewpointF,PressureIn,WindDirection,WindDirectionDegrees,WindSpeedMPH,WindSpeedGustMPH,Humidity,HourlyPrecipIn,Conditions,Clouds,dailyrainin,SoftwareType,DateUTC
2013-06-16 00:01:00,62.0,55.0,29.98,NNW,333,0.0,0.0,78,0.00,,,0.00,,2013-06-16 07:01:00,
2013-06-16 00:11:00,62.0,55.0,29.98,NNW,333,0.0,0.0,78,0.00,,,0.00,,2013-06-16 07:11:00,
2013-06-16 00:22:00,62.0,55.0,29.98,NNW,333,0.0,0.0,78,0.00,,,0.00,,2013-06-16 07:22:00,
2013-06-16 00:32:00,62.0,55.0,29.98,NNW,333,0.0,0.0,78,0.00,,,0.00,,2013-06-16 07:32:00,
2013-06-16 00:43:00,62.0,55.0,29.99,NE,54,0.0,2.0,79,0.00,,,0.00,,2013-06-16 07:43:00,
2013-06-16 00:53:00,62.0,55.0,29.99,NE,54,0.0,2.0,79,0.00,,,0.00,,2013-06-16 07:53:00,
2013-06-16 01:02:00,60.0,55.0,29.99,NNW,347,0.0,1.0,83,0.00,,,0.00,,2013-06-16 08:02:00,
2013-06-16 01:11:00,60.0,55.0,29.99,NNW,347,0.0,1.0,83,0.00,,,0.00,,2013-06-16 08:11:00,
2013-06-16 01:22:00,60.0,55.0,29.99,NNW,347,0.0,1.0,83,0.00,,,0.00,,2013-06-16 08:22:00,
2013-06-16 01:33:00,59.0,53.0,30.00,NNW,345,0.0,1.0,81,0.00,,,0.00,,2013-06-16 08:33:00,
2013-06-16 01:43:00,59.0,53.0,30.00,NNW,345,0.0,1.0,81,0.00,,,0.00,,2013-06-16 08:43:00,
2013-06-16 01:54:00,59.0,53.0,30.00,NNW,345,0.0,1.0,81,0.00,,,0.00,,2013-06-16 08:54:00,
2013-06-16 02:01:00,60.0,52.0,30.01,West,259,0.0,1.0,76,0.00,,,0.00,,2013-06-16 09:01:00,
2013-06-16 02:11:00,60.0,52.0,30.01,West,259,0.0,1.0,76,0.00,,,0.00,,2013-06-16 09:11:00,
2013-06-16 02:22:00,60.0,52.0,30.01,West,259,0.0,1.0,76,0.00,,,0.00,,2013-06-16 09:22:00,
2013-06-16 02:33:00,61.0,52.0,30.01,SW,228,2.0,7.0,73,0.00,,,0.00,,2013-06-16 09:33:00,
2013-06-16 02:42:00,61.0,52.0,30.01,SW,228,2.0,7.0,73,0.00,,,0.00,,2013-06-16 09:42:00,
2013-06-16 02:52:00,61.0,52.0,30.01,SW,228,2.0,7.0,73,0.00,,,0.00,,2013-06-16 09:52:00,
2013-06-16 03:01:00,60.0,51.0,30.01,West,269,1.0,4.0,73,0.00,,,0.00,,2013-06-16 10:01:00,
2013-06-16 03:12:00,60.0,51.0,30.01,West,269,1.0,4.0,73,0.00,,,0.00,,2013-06-16 10:12:00,
2013-06-16 03:22:00,60.0,51.0,30.01,West,269,1.0,4.0,73,0.00,,,0.00,,2013-06-16 10:22:00,
2013-06-16 03:33:00,59.0,51.0,30.02,SW,226,0.0,3.0,75,0.00,,,0.00,,2013-06-16 10:33:00,
2013-06-16 03:42:00,59.0,51.0,30.02,SW,226,0.0,3.0,75,0.00,,,0.00,,2013-06-16 10:42:00,
2013-06-16 03:53:00,59.0,51.0,30.02,SW,226,0.0,3.0,75,0.00,,,0.00,,2013-06-16 10:53:00,
2013-06-16 04:02:00,59.0,51.0,30.02,West,259,2.0,7.0,76,0.00,,,0.00,,2013-06-16 11:02:00,
2013-06-16 04:11:00,59.0,51.0,30.02,West,259,2.0,7.0,76,0.00,,,0.00,,2013-06-16 11:11:00,
2013-06-16 04:22:00,59.0,51.0,30.02,West,259,2.0,7.0,76,0.00,,,0.00,,2013-06-16 11:22:00,
2013-06-16 04:33:00,59.0,51.0,30.02,West,259,2.0,7.0,76,0.00,,,0.00,,2013-06-16 11:33:00,
2013-06-16 04:43:00,58.0,50.0,30.03,NW,308,1.0,4.0,76,0.00,,,0.00,,2013-06-16 11:43:00,
2013-06-16 04:53:00,58.0,50.0,30.03,NW,308,1.0,4.0,76,0.00,,,0.00,,2013-06-16 11:53:00,
2013-06-16 05:01:00,57.0,51.0,30.03,West,281,1.0,2.0,79,0.00,,,0.00,,2013-06-16 12:01:00,
2013-06-16 05:11:00,57.0,51.0,30.03,West,281,1.0,2.0,79,0.00,,,0.00,,2013-06-16 12:11:00,
2013-06-16 05:22:00,57.0,51.0,30.03,West,281,1.0,2.0,79,0.00,,,0.00,,2013-06-16 12:22:00,
2013-06-16 05:32:00,57.0,51.0,30.04,North,356,2.0,7.0,81,0.00,,,0.00,,2013-06-16 12:32:00,
2013-06-16 05:42:00,57.0,51.0,30.04,North,356,2.0,7.0,81,0.00,,,0.00,,2013-06-16 12:42:00,
2013-06-16 05:53:00,57.0,51.0,30.04,North,356,2.0,7.0,81,0.00,,,0.00,,2013-06-16 12:53:00,
2013-06-16 06:01:00,57.0,52.0,30.04,West,273,1.0,5.0,82,0.00,,,0.00,,2013-06-16 13:01:00,
2013-06-16 06:11:00,57.0,52.0,30.04,West,273,1.0,5.0,82,0.00,,,0.00,,2013-06-16 13:11:00,
2013-06-16 06:22:00,57.0,52.0,30.04,West,273,1.0,5.0,82,0.00,,,0.00,,2013-06-16 13:22:00,
2013-06-16 06:34:00,58.0,52.0,30.05,WSW,251,0.0,1.0,81,0.00,,,0.00,,2013-06-16 13:34:00,
2013-06-16 06:42:00,58.0,52.0,30.05,WSW,251,0.0,1.0,81,0.00,,,0.00,,2013-06-16 13:42:00,
2013-06-16 06:53:00,58.0,52.0,30.05,WSW,251,0.0,1.0,81,0.00,,,0.00,,2013-06-16 13:53:00,
2013-06-16 07:01:00,58.0,52.0,30.05,WSW,251,0.0,1.0,81,0.00,,,0.00,,2013-06-16 14:01:00,
2013-06-16 07:12:00,58.0,52.0,30.06,SSE,153,1.0,3.0,79,0.00,,,0.00,,2013-06-16 14:12:00,
2013-06-16 07:22:00,58.0,52.0,30.06,SSE,153,1.0,3.0,79,0.00,,,0.00,,2013-06-16 14:22:00,
2013-06-16 07:34:00,61.0,53.0,30.06,SE,127,1.0,3.0,76,0.00,,,0.00,,2013-06-16 14:34:00,
2013-06-16 07:43:00,61.0,53.0,30.06,SE,127,1.0,3.0,76,0.00,,,0.00,,2013-06-16 14:43:00,
2013-06-16 07:52:00,61.0,53.0,30.06,SE,127,1.0,3.0,76,0.00,,,0.00,,2013-06-16 14:52:00,
2013-06-16 08:02:00,64.0,54.0,30.06,SSE,155,1.0,2.0,69,0.00,,,0.00,,2013-06-16 15:02:00,
2013-06-16 08:12:00,64.0,54.0,30.06,SSE,155,1.0,2.0,69,0.00,,,0.00,,2013-06-16 15:12:00,
2013-06-16 08:22:00,64.0,54.0,30.06,SSE,155,1.0,2.0,69,0.00,,,0.00,,2013-06-16 15:22:00,
2013-06-16 08:33:00,64.0,54.0,30.06,SSE,155,1.0,2.0,69,0.00,,,0.00,,2013-06-16 15:33:00,
2013-06-16 08:43:00,64.0,54.0,30.07,South,188,1.0,4.0,70,0.00,,,0.00,,2013-06-16 15:43:00,
2013-06-16 08:52:00,64.0,54.0,30.07,South,188,1.0,4.0,70,0.00,,,0.00,,2013-06-16 15:52:00,
2013-06-16 09:01:00,64.0,54.0,30.07,South,188,1.0,5.0,71,0.00,,,0.00,,2013-06-16 16:01:00,
2013-06-16 09:11:00,64.0,54.0,30.07,South,188,1.0,5.0,71,0.00,,,0.00,,2013-06-16 16:11:00,
2013-06-16 09:22:00,64.0,54.0,30.07,South,188,1.0,5.0,71,0.00,,,0.00,,2013-06-16 16:22:00,
2013-06-16 09:33:00,65.0,54.0,30.06,West,278,3.0,6.0,68,0.00,,,0.00,,2013-06-16 16:33:00,
2013-06-16 09:43:00,65.0,54.0,30.06,West,278,3.0,6.0,68,0.00,,,0.00,,2013-06-16 16:43:00,
2013-06-16 09:53:00,65.0,54.0,30.06,West,278,3.0,6.0,68,0.00,,,0.00,,2013-06-16 16:53:00,
2013-06-16 10:01:00,66.0,54.0,30.06,SSW,200,2.0,5.0,65,0.00,,,0.00,,2013-06-16 17:01:00,
2013-06-16 10:11:00,66.0,54.0,30.06,SSW,200,2.0,5.0,65,0.00,,,0.00,,2013-06-16 17:11:00,
2013-06-16 10:22:00,66.0,54.0,30.06,SSW,200,2.0,5.0,65,0.00,,,0.00,,2013-06-16 17:22:00,
2013-06-16 10:34:00,66.0,54.0,30.06,SSW,200,2.0,5.0,65,0.00,,,0.00,,2013-06-16 17:34:00,
2013-06-16 10:43:00,67.0,54.0,30.06,West,264,2.0,7.0,63,0.00,,,0.00,,2013-06-16 17:43:00,
2013-06-16 10:53:00,67.0,54.0,30.06,West,264,2.0,7.0,63,0.00,,,0.00,,2013-06-16 17:53:00,
2013-06-16 11:02:00,67.0,54.0,30.06,SE,141,3.0,6.0,63,0.00,,,0.00,,2013-06-16 18:02:00,
2013-06-16 11:12:00,67.0,54.0,30.06,SE,141,3.0,6.0,63,0.00,,,0.00,,2013-06-16 18:12:00,
2013-06-16 11:22:00,67.0,54.0,30.06,SE,141,3.0,6.0,63,0.00,,,0.00,,2013-06-16 18:22:00,
2013-06-16 11:33:00,67.0,53.0,30.06,South,186,2.0,5.0,61,0.00,,,0.00,,2013-06-16 18:33:00,
2013-06-16 11:43:00,67.0,53.0,30.06,South,186,2.0,5.0,61,0.00,,,0.00,,2013-06-16 18:43:00,
2013-06-16 11:52:00,67.0,53.0,30.06,South,186,2.0,5.0,61,0.00,,,0.00,,2013-06-16 18:52:00,
2013-06-16 12:01:00,68.0,53.0,30.06,West,280,4.0,7.0,59,0.00,,,0.00,,2013-06-16 19:01:00,
2013-06-16 12:11:00,68.0,53.0,30.06,West,280,4.0,7.0,59,0.00,,,0.00,,2013-06-16 19:11:00,
2013-06-16 12:22:00,68.0,53.0,30.06,West,280,4.0,7.0,59,0.00,,,0.00,,2013-06-16 19:22:00,
2013-06-16 12:33:00,68.0,53.0,30.06,West,280,4.0,7.0,59,0.00,,,0.00,,2013-06-16 19:33:00,
2013-06-16 12:43:00,70.0,55.0,30.05,WSW,239,2.0,6.0,59,0.00,,,0.00,,2013-06-16 19:43:00,
2013-06-16 12:53:00,70.0,55.0,30.05,WSW,239,2.0,6.0,59,0.00,,,0.00,,2013-06-16 19:53:00,
2013-06-16 13:01:00,70.0,55.0,30.04,West,273,3.0,7.0,58,0.00,,,0.00,,2013-06-16 20:01:00,
2013-06-16 13:11:00,70.0,55.0,30.04,West,273,3.0,7.0,58,0.00,,,0.00,,2013-06-16 20:11:00,
2013-06-16 13:22:00,70.0,55.0,30.04,West,273,3.0,7.0,58,0.00,,,0.00,,2013-06-16 20:22:00,
2013-06-16 13:33:00,70.0,55.0,30.04,WSW,252,2.0,11.0,59,0.00,,,0.00,,2013-06-16 20:33:00,
2013-06-16 13:42:00,70.0,55.0,30.04,WSW,252,2.0,11.0,59,0.00,,,0.00,,2013-06-16 20:42:00,
2013-06-16 13:53:00,70.0,55.0,30.04,WSW,252,2.0,11.0,59,0.00,,,0.00,,2013-06-16 20:53:00,
2013-06-16 14:01:00,71.0,56.0,30.03,WNW,287,3.0,10.0,59,0.00,,,0.00,,2013-06-16 21:01:00,
2013-06-16 14:11:00,71.0,56.0,30.03,WNW,287,3.0,10.0,59,0.00,,,0.00,,2013-06-16 21:11:00,
2013-06-16 14:21:00,71.0,56.0,30.03,WNW,287,3.0,10.0,59,0.00,,,0.00,,2013-06-16 21:21:00,
2013-06-16 14:32:00,73.0,56.0,30.03,NW,323,5.0,10.0,56,0.00,,,0.00,,2013-06-16 21:32:00,
2013-06-16 14:42:00,73.0,56.0,30.03,NW,323,5.0,10.0,56,0.00,,,0.00,,2013-06-16 21:42:00,
2013-06-16 14:53:00,73.0,56.0,30.03,NW,323,5.0,10.0,56,0.00,,,0.00,,2013-06-16 21:53:00,
2013-06-16 15:01:00,74.0,56.0,30.03,West,278,4.0,8.0,53,0.00,,,0.00,,2013-06-16 22:01:00,
2013-06-16 15:11:00,74.0,56.0,30.03,West,278,4.0,8.0,53,0.00,,,0.00,,2013-06-16 22:11:00,
2013-06-16 15:22:00,74.0,56.0,30.03,West,278,4.0,8.0,53,0.00,,,0.00,,2013-06-16 22:22:00,
2013-06-16 15:32:00,72.0,56.0,30.03,WNW,293,3.0,7.0,57,0.00,,,0.00,,2013-06-16 22:32:00,
2013-06-16 15:41:00,72.0,56.0,30.03,WNW,293,3.0,7.0,57,0.00,,,0.00,,2013-06-16 22:41:00,
2013-06-16 15:52:00,72.0,56.0,30.03,WNW,293,3.0,7.0,57,0.00,,,0.00,,2013-06-16 22:52:00,
2013-06-16 16:01:00,74.0,57.0,30.03,WNW,287,2.0,5.0,55,0.00,,,0.00,,2013-06-16 23:01:00,
2013-06-16 16:11:00,74.0,57.0,30.03,WNW,287,2.0,5.0,55,0.00,,,0.00,,2013-06-16 23:11:00,
2013-06-16 16:22:00,74.0,57.0,30.03,WNW,287,2.0,5.0,55,0.00,,,0.00,,2013-06-16 23:22:00,
2013-06-16 16:32:00,75.0,56.0,30.03,West,269,4.0,6.0,52,0.00,,,0.00,,2013-06-16 23:32:00,
2013-06-16 16:42:00,75.0,56.0,30.03,West,269,4.0,6.0,52,0.00,,,0.00,,2013-06-16 23:42:00,
2013-06-16 16:52:00,75.0,56.0,30.03,West,269,4.0,6.0,52,0.00,,,0.00,,2013-06-16 23:52:00,
2013-06-16 17:01:00,72.0,54.0,30.04,NW,309,1.0,5.0,54,0.00,,,0.00,,2013-06-17 00:01:00,
2013-06-16 17:11:00,72.0,54.0,30.04,NW,309,1.0,5.0,54,0.00,,,0.00,,2013-06-17 00:11:00,
2013-06-16 17:22:00,72.0,54.0,30.04,NW,309,1.0,5.0,54,0.00,,,0.00,,2013-06-17 00:22:00,
2013-06-16 17:32:00,71.0,59.0,30.04,SE,129,1.0,2.0,66,0.01,,,0.01,,2013-06-17 00:32:00,
2013-06-16 17:42:00,71.0,59.0,30.04,SE,129,1.0,2.0,66,0.01,,,0.01,,2013-06-17 00:42:00,
2013-06-16 17:52:00,71.0,59.0,30.04,SE,129,1.0,2.0,66,0.01,,,0.01,,2013-06-17 00:52:00,
2013-06-16 18:02:00,71.0,58.0,30.04,WSW,248,3.0,6.0,63,0.02,,,0.02,,2013-06-17 01:02:00,
2013-06-16 18:11:00,71.0,58.0,30.04,WSW,248,3.0,6.0,63,0.02,,,0.02,,2013-06-17 01:11:00,
2013-06-16 18:22:00,71.0,58.0,30.04,WSW,248,3.0,6.0,63,0.02,,,0.02,,2013-06-17 01:22:00,
2013-06-16 18:43:00,66.0,63.0,30.05,WNW,300,0.0,1.0,89,0.08,,,0.10,,2013-06-17 01:43:00,
2013-06-16 18:53:00,66.0,63.0,30.05,WNW,300,0.0,1.0,89,0.08,,,0.10,,2013-06-17 01:53:00,
2013-06-16 19:02:00,66.0,62.0,30.05,NW,319,0.0,1.0,88,0.08,,,0.10,,2013-06-17 02:02:00,
2013-06-16 19:11:00,66.0,62.0,30.05,NW,319,0.0,1.0,88,0.08,,,0.10,,2013-06-17 02:11:00,
2013-06-16 19:22:00,66.0,62.0,30.05,NW,319,0.0,1.0,88,0.08,,,0.10,,2013-06-17 02:22:00,
2013-06-16 19:34:00,68.0,59.0,30.05,NW,304,1.0,3.0,74,0.00,,,0.10,,2013-06-17 02:34:00,
2013-06-16 19:43:00,68.0,59.0,30.05,NW,304,1.0,3.0,74,0.00,,,0.10,,2013-06-17 02:43:00,
2013-06-16 19:53:00,68.0,59.0,30.05,NW,304,1.0,3.0,74,0.00,,,0.10,,2013-06-17 02:53:00,
2013-06-16 20:33:00,66.0,55.0,30.06,West,280,0.0,2.0,67,0.00,,,0.10,,2013-06-17 03:33:00,
2013-06-16 20:44:00,66.0,55.0,30.06,West,280,0.0,2.0,67,0.00,,,0.10,,2013-06-17 03:44:00,
2013-06-16 20:54:00,66.0,55.0,30.06,West,280,0.0,2.0,67,0.00,,,0.10,,2013-06-17 03:54:00,
2013-06-16 21:02:00,64.0,54.0,30.06,West,271,0.0,2.0,71,0.00,,,0.10,,2013-06-17 04:02:00,
2013-06-16 21:12:00,64.0,54.0,30.06,West,271,0.0,2.0,71,0.00,,,0.10,,2013-06-17 04:12:00,
2013-06-16 21:22:00,64.0,54.0,30.06,West,271,0.0,2.0,71,0.00,,,0.10,,2013-06-17 04:22:00,
2013-06-16 21:33:00,64.0,54.0,30.06,West,271,0.0,2.0,71,0.00,,,0.10,,2013-06-17 04:33:00,
2013-06-16 21:42:00,63.0,55.0,30.07,West,276,0.0,1.0,74,0.00,,,0.10,,2013-06-17 04:42:00,
2013-06-16 21:53:00,63.0,55.0,30.07,West,276,0.0,1.0,74,0.00,,,0.10,,2013-06-17 04:53:00,
2013-06-16 22:02:00,63.0,54.0,30.07,WNW,283,1.0,4.0,72,0.00,,,0.10,,2013-06-17 05:02:00,
2013-06-16 22:11:00,63.0,54.0,30.07,WNW,283,1.0,4.0,72,0.00,,,0.10,,2013-06-17 05:11:00,
2013-06-16 22:22:00,63.0,54.0,30.07,WNW,283,1.0,4.0,72,0.00,,,0.10,,2013-06-17 05:22:00,
2013-06-16 22:33:00,62.0,53.0,30.08,WSW,257,0.0,2.0,72,0.00,,,0.10,,2013-06-17 05:33:00,
2013-06-16 22:44:00,62.0,53.0,30.08,WSW,257,0.0,2.0,72,0.00,,,0.10,,2013-06-17 05:44:00,
2013-06-16 22:53:00,62.0,53.0,30.08,WSW,257,0.0,2.0,72,0.00,,,0.10,,2013-06-17 05:53:00,
2013-06-16 23:02:00,61.0,52.0,30.08,WNW,285,1.0,2.0,72,0.00,,,0.10,,2013-06-17 06:02:00,
2013-06-16 23:12:00,61.0,52.0,30.08,WNW,285,1.0,2.0,72,0.00,,,0.10,,2013-06-17 06:12:00,
2013-06-16 23:22:00,61.0,52.0,30.08,WNW,285,1.0,2.0,72,0.00,,,0.10,,2013-06-17 06:22:00,
2013-06-16 23:32:00,60.0,55.0,30.09,ENE,72,0.0,2.0,83,0.00,,,0.10,,2013-06-17 06:32:00,
2013-06-16 23:43:00,60.0,55.0,30.09,ENE,72,0.0,2.0,83,0.00,,,0.10,,2013-06-17 06:43:00,
2013-06-16 23:53:00,60.0,55.0,30.09,ENE,72,0.0,2.0,83,0.00,,,0.10,,2013-06-17 06:53:00,